Temperature
30 30 29 30 31 31 31 30 29 29 29 28 27 25 25 25 24 23 22 21 21 20 20 19 19 19 19 19 18 18 18 18 18 18 18 17 17 17 17 17 17 16 16 16
30 29 30 32 32 31 30 29 28 29 29 28 25 24 24 25 25 24 23 22 21 20 20 20 19 19 19 18 18 18 18 18 18 18 17 17 17 17 17 17 17 16 16 16
30 31 32 32 31 30 30 29 29 29 28 27 25 23 23 24 25 24 23 22 22 21 20 20 20 19 19 18 18 18 18 18 18 17 17 17 17 17 17 17 16 16 16 15
31 31 31 31 31 30 29 30 29 29 27 25 24 22 22 23 24 25 24 23 22 22 21 20 20 20 19 19 18 18 18 18 18 17 17 17 17 17 17 16 16 16 15 15
31 31 31 30 31 31 30 30 29 28 25 24 24 23 23 23 23 24 24 24 23 22 22 21 21 20 20 19 19 18 18 18 17 17 17 17 16 16 16 16 15 15 15 15
31 31 31 31 31 31 31 29 27 25 23 21 23 25 23 24 24 24 25 24 23 23 22 22 21 20 20 20 19 18 18 17 17 17 16 16 16 16 15 15 15 15 14 14
29 30 31 31 30 30 30 28 25 23 21 21 25 26 25 26 26 26 25 25 24 24 23 22 21 21 20 20 19 19 18 17 17 16 16 16 15 15 15 14 14 14 14 14
28 27 29 30 30 29 29 28 26 24 24 24 25 25 26 28 27 26 26 25 25 24 23 23 22 21 21 20 19 19 18 17 17 16 16 15 15 14 14 14 14 14 13 13
29 28 30 31 32 31 29 29 30 28 27 25 25 26 26 28 28 27 26 26 25 25 24 23 23 22 21 20 20 19 18 17 16 16 15 15 15 14 14 13 13 13 13 12
30 29 30 30 31 31 31 30 29 28 26 25 24 25 24 26 27 27 27 27 26 25 24 24 23 22 21 20 19 19 18 17 16 16 15 15 14 14 13 13 12 12 12 12
31 29 29 29 29 29 30 30 29 29 28 25 23 24 27 27 27 28 27 27 26 25 25 24 23 22 21 20 19 18 18 17 16 16 15 14 14 13 13 13 12 12 12 11
31 30 28 28 29 29 29 29 29 27 27 27 25 25 28 28 29 28 28 27 26 26 25 24 23 21 21 20 19 19 18 17 16 16 15 14 14 13 13 12 12 12 11 11
30 29 27 27 25 24 26 28 29 29 28 27 26 25 29 29 29 28 28 27 26 26 25 24 22 21 20 20 19 19 18 17 16 16 15 14 14 13 13 12 12 12 11 11
30 28 27 25 23 22 23 26 28 28 28 27 27 26 27 28 28 28 28 27 26 25 24 23 22 21 20 19 19 18 18 17 16 15 15 14 14 13 13 12 12 11 11 11
29 28 28 27 26 25 26 27 28 29 29 28 28 28 28 28 28 28 27 27 26 25 24 23 22 21 20 19 18 18 17 17 16 15 14 14 14 13 13 12 12 11 11 11
28 28 28 27 27 27 27 28 29 29 30 29 29 29 29 29 28 28 27 27 26 25 24 23 22 21 20 19 18 18 17 16 15 15 14 14 14 13 13 12 12 11 11 11
28 27 27 27 28 28 28 29 30 30 30 30 29 29 29 28 28 28 27 27 26 25 24 23 22 21 20 19 18 17 17 16 15 15 15 14 14 13 13 12 12 11 11 11
27 26 27 27 26 25 28 30 30 30 30 30 30 30 29 29 28 27 27 26 26 25 24 23 22 21 20 19 18 17 17 16 16 15 15 14 14 13 13 12 12 11 11 11
27 26 26 26 25 26 27 28 29 29 29 30 30 29 29 28 28 27 26 25 25 24 24 23 22 21 20 19 18 17 17 16 16 16 15 14 14 13 13 12 12 11 11 11
27 26 26 26 25 25 26 27 28 28 27 29 29 29 29 28 27 27 26 25 24 24 23 22 21 20 19 19 18 17 17 16 16 15 15 14 14 13 13 12 12 12 11 11
25 25 26 26 26 26 26 27 27 25 25 27 28 28 28 27 27 26 25 24 24 23 22 21 21 20 19 18 18 17 17 16 16 15 15 14 14 13 13 12 12 12 11 11
25 25 25 26 25 24 25 26 24 23 24 26 27 27 27 26 26 25 25 24 23 22 22 21 20 20 19 18 18 17 17 16 15 15 15 14 14 13 13 12 12 11 11 11
27 27 26 24 23 22 22 22 23 24 24 25 26 27 26 26 25 25 24 23 22 22 21 21 20 19 18 18 17 17 16 16 15 15 15 14 14 13 13 12 12 11 11 11
26 26 25 24 23 22 22 22 23 23 24 25 25 26 26 25 25 24 23 22 22 21 21 20 20 19 18 17 17 17 16 16 15 15 15 14 13 13 13 12 12 12 11 11
26 26 25 24 24 24 23 23 23 23 24 24 25 25 25 24 24 23 23 22 21 21 20 20 19 18 18 17 17 17 16 16 15 15 14 14 13 13 13 13 12 12 12 11
26 25 25 23 23 23 23 23 23 23 24 24 23 23 23 23 23 23 22 21 21 20 20 19 19 18 17 17 17 16 16 15 15 14 14 13 13 13 13 13 12 12 12 12
Wind_Speed
13 11 11 9 9 10 10 9 8 5 2 2 2 4 6 6 8 9 9 9 7 8 9 9 9 10 9 8 8 7 7 5 3 3 1 1 1 1 2 3 5 3 2 2
12 10 13 10 11 11 9 8 7 5 3 0 4 4 2 4 8 8 10 10 10 10 10 9 9 9 8 8 8 8 7 5 3 3 1 1 1 1 1 3 3 2 1 1
12 8 7 9 9 9 9 8 7 7 4 2 3 1 1 2 5 8 9 10 11 12 11 10 10 9 9 9 8 7 7 5 3 2 1 0 0 1 0 1 1 1 0 1
10 8 9 9 9 8 7 7 9 9 4 1 3 1 3 6 5 7 9 10 11 12 12 11 11 10 9 9 9 8 7 5 3 1 1 1 1 1 2 1 1 2 2 2
11 10 10 10 8 8 8 7 8 9 5 2 4 2 4 7 6 7 9 10 11 12 12 12 11 10 9 9 9 9 7 5 3 1 1 2 3 3 3 4 3 3 3 4
13 12 10 9 8 7 7 7 5 6 4 3 8 4 5 6 10 11 11 12 12 12 12 12 11 9 8 8 8 9 8 5 3 2 0 1 3 4 5 5 4 4 3 3
11 10 10 7 9 6 8 8 4 2 0 5 8 1 5 8 11 13 13 13 13 13 12 12 11 10 8 8 7 7 8 6 3 2 0 1 2 4 5 4 4 4 4 4
8 5 7 8 8 7 8 8 6 5 3 2 3 4 7 11 12 13 13 13 13 13 12 12 12 10 9 8 8 7 8 5 3 1 2 1 2 3 3 5 5 5 4 4
7 6 8 9 8 7 6 7 8 7 6 3 2 7 8 9 12 13 13 13 12 12 13 12 11 10 9 8 7 6 7 5 3 1 0 3 2 1 3 3 5 4 4 6
8 7 7 7 10 8 8 9 7 5 4 2 0 3 7 10 12 12 12 12 12 11 12 11 9 8 8 7 7 6 5 4 2 2 2 2 2 2 2 3 4 4 5 5
8 8 7 6 8 9 8 7 5 6 5 3 1 1 7 11 12 13 13 12 12 12 11 11 10 10 8 7 7 6 5 4 3 2 1 1 2 3 3 3 4 4 4 5
5 7 8 6 6 9 10 7 5 5 5 4 1 2 6 8 10 11 12 12 12 11 11 12 11 10 8 7 6 5 4 3 2 2 1 2 2 2 3 4 4 5 5 6
4 5 8 5 6 9 8 11 9 5 5 5 3 2 5 6 7 8 10 11 11 10 10 10 10 9 7 6 5 4 3 2 1 0 1 2 2 2 3 4 5 5 5 6
4 7 9 8 4 6 10 15 13 8 7 5 3 2 6 6 6 7 8 10 11 11 9 9 9 7 6 5 4 4 3 2 1 1 2 2 2 3 4 4 5 5 5 6
6 9 9 7 6 10 14 16 15 11 10 9 6 6 7 9 8 8 9 10 11 12 11 10 9 8 7 6 6 5 4 3 2 1 3 3 3 3 4 5 5 6 6 8
5 8 10 11 11 13 16 16 13 12 11 9 7 3 4 7 7 8 9 10 10 11 12 12 11 10 8 7 6 5 4 4 3 3 4 3 3 4 5 5 6 6 6 6
8 8 11 12 11 12 13 11 11 10 8 6 5 2 5 6 6 6 6 7 8 9 10 11 11 10 8 7 6 5 5 5 4 4 5 4 4 4 5 6 5 6 6 6
8 8 8 11 10 12 9 7 5 5 4 3 2 5 5 5 5 5 7 7 7 7 9 10 10 10 9 8 8 7 6 5 6 6 5 4 4 5 4 5 5 5 5 6
7 8 9 10 11 10 9 7 5 5 3 2 3 4 5 5 4 5 7 8 7 6 7 9 9 10 9 8 8 7 6 6 6 5 4 4 4 4 5 6 5 6 5 6
8 8 10 11 11 10 6 4 4 3 3 0 3 3 3 3 3 2 8 9 8 7 7 8 9 9 8 7 7 6 6 6 5 4 3 3 3 5 6 6 6 6 5 7
8 10 12 13 13 7 1 1 1 3 0 4 4 2 1 1 1 5 7 8 8 8 8 8 8 8 8 8 7 6 5 4 4 3 3 4 4 5 7 7 6 6 7 7
11 10 11 10 10 5 5 3 2 2 3 4 2 1 1 2 3 5 6 7 8 9 9 10 7 7 7 7 7 6 5 4 3 3 4 5 5 7 7 5 5 6 7 8
8 6 4 2 2 1 4 3 2 2 3 5 5 4 2 1 1 3 6 7 8 8 8 8 8 8 7 8 7 7 5 4 3 4 5 5 7 7 7 7 7 7 7 7
5 5 4 1 3 4 3 1 0 2 3 5 6 6 5 4 1 2 5 6 6 7 7 7 8 8 7 7 8 7 5 4 4 5 5 6 7 8 8 6 6 7 6 6
5 4 3 2 2 2 4 4 4 5 6 7 8 7 6 4 2 2 4 4 5 5 5 5 5 5 6 6 6 6 6 5 5 6 6 7 8 9 7 7 7 8 7 7
4 3 1 2 4 3 6 7 7 6 6 7 7 8 8 6 4 3 4 4 4 4 4 4 4 4 4 5 6 5 5 5 5 6 7 7 7 7 6 6 7 10 12 13
Wind_Direction
249 246 276 292 296 296 310 322 335 320 314 337 95 124 136 138 133 138 132 128 127 123 123 123 124 126 125 125 129 130 126 125 132 121 125 118 110 193 159 138 125 110 76 53
254 252 264 284 292 301 312 314 306 293 275 20 69 73 79 131 140 143 140 141 142 139 137 136 136 134 133 137 137 133 131 135 135 118 122 176 122 257 119 93 116 128 114 2
268 264 266 283 298 306 314 307 303 303 309 65 89 73 126 204 147 143 147 150 152 150 151 150 145 142 142 141 141 134 129 130 128 127 158 70 100 267 101 117 153 137 39 330
278 285 285 288 294 298 298 302 302 296 302 293 218 192 195 201 179 165 160 159 156 149 152 153 152 149 149 147 140 129 129 131 134 139 49 336 301 342 359 10 52 44 338 298
276 274 277 282 286 291 302 314 321 333 357 357 266 198 193 184 176 180 167 161 155 154 155 155 152 153 154 151 143 141 141 141 140 148 62 336 344 354 3 9 358 340 290 263
279 282 279 281 282 285 296 299 329 340 12 309 253 230 166 181 180 180 172 163 161 161 157 153 150 152 155 153 153 150 143 145 151 183 233 354 344 349 336 323 311 307 305 301
267 276 274 271 273 280 291 290 299 339 284 242 251 212 135 154 163 168 165 164 167 163 159 157 157 163 165 162 150 138 137 145 159 177 81 15 3 325 296 304 325 334 323 329
274 280 262 256 259 273 273 274 278 292 272 225 224 125 129 138 145 151 159 164 168 165 162 165 167 169 171 161 148 142 136 138 141 122 87 20 334 312 342 12 350 324 320 339
280 279 254 261 269 274 281 285 288 287 300 316 157 119 121 140 144 153 163 167 171 170 167 170 168 165 161 149 142 131 128 128 126 120 168 241 238 297 325 327 302 314 348 326
269 280 277 270 268 253 264 279 285 294 305 327 329 153 160 170 165 167 170 171 169 173 168 162 151 141 130 126 123 120 126 135 159 214 257 301 16 306 303 300 308 305 303 310
262 274 277 267 271 287 267 263 293 308 315 334 2 314 166 180 175 175 179 178 173 177 167 153 145 139 141 143 145 146 155 165 178 202 195 298 285 305 308 290 288 302 310 307
269 277 283 281 321 324 300 281 265 282 307 305 320 128 149 170 170 175 174 172 170 170 159 154 150 149 154 158 161 160 163 177 184 178 186 249 271 294 305 307 318 315 305 299
292 286 282 288 2 348 308 291 278 272 275 278 294 179 169 166 161 167 163 160 156 157 154 148 144 152 160 163 158 159 170 185 195 134 288 280 283 294 295 294 293 293 292 292
281 269 278 281 254 240 263 272 268 254 264 271 286 204 181 180 169 164 160 156 157 159 153 147 140 151 155 153 161 180 180 182 173 124 277 282 285 282 283 288 290 289 290 290
262 265 273 270 238 237 250 255 258 251 255 268 255 229 191 180 181 174 171 167 167 164 165 162 158 162 162 168 171 187 184 168 163 227 260 265 271 282 281 281 284 285 284 287
262 274 281 273 252 250 254 251 254 257 258 261 267 260 134 152 157 164 173 177 177 174 175 173 170 166 170 179 181 177 178 175 188 229 256 263 269 274 274 276 274 279 283 288
256 266 277 282 294 285 270 264 254 253 256 256 245 158 123 142 156 166 173 181 183 182 177 172 168 164 166 175 169 180 185 180 203 228 248 251 257 271 276 287 296 295 294 292
254 278 276 278 288 277 279 290 273 259 250 239 167 140 145 146 142 157 169 173 182 180 172 162 162 161 166 168 170 184 192 192 212 228 242 254 262 274 282 284 284 286 287 288
226 244 263 271 273 274 277 295 289 271 243 237 186 147 135 131 150 185 173 162 169 169 154 149 157 160 161 168 174 182 200 212 223 237 245 262 275 284 285 284 285 286 285 286
216 221 248 259 264 269 268 262 265 268 245 311 116 118 128 166 228 145 144 151 157 153 145 149 159 155 156 163 166 183 210 221 234 250 260 271 274 275 278 279 279 283 284 282
230 231 241 255 264 269 291 242 269 236 86 36 69 76 144 147 67 108 137 148 148 148 150 152 155 154 157 158 161 192 219 229 241 261 266 265 261 261 262 261 262 271 276 280
241 239 242 254 268 285 20 30 44 89 338 316 359 349 10 102 134 152 148 144 151 158 166 166 158 155 155 161 172 198 219 228 235 254 265 269 267 270 276 273 269 269 270 276
258 267 259 220 223 355 351 26 8 15 313 307 322 339 330 277 200 162 150 151 161 165 169 169 164 165 167 172 181 202 211 215 229 246 258 264 268 266 266 263 267 269 266 272
312 328 296 254 194 177 155 139 345 308 317 328 336 341 338 335 328 128 139 157 165 169 168 168 171 177 180 184 189 198 202 204 223 242 252 260 262 263 260 251 261 267 271 277
286 265 269 308 355 189 89 52 8 360 4 356 354 347 342 339 344 102 133 145 152 154 153 163 170 177 182 186 193 201 200 199 224 245 256 263 265 265 258 254 251 256 257 258
328 359 356 65 44 22 32 22 8 5 15 9 6 2 2 3 15 67 99 116 128 140 145 157 173 189 190 189 197 206 203 204 224 247 256 265 272 274 273 271 271 248 240 242
Height
1492 1494 1492 1485 1480 1479 1479 1482 1487 1484 1478 1482 1489 1494 1495 1496 1499 1502 1505 1508 1511 1513 1516 1519 1522 1525 1527 1528 1530 1532 1534 1535 1538 1539 1540 1541 1542 1543 1544 1544 1544 1544 1544 1545
1488 1492 1484 1478 1476 1476 1479 1485 1487 1482 1478 1483 1493 1498 1496 1497 1500 1502 1505 1509 1512 1515 1518 1520 1523 1525 1527 1528 1530 1532 1534 1536 1537 1539 1540 1541 1542 1543 1544 1544 1543 1543 1543 1543
1486 1482 1476 1476 1477 1480 1481 1484 1484 1484 1481 1485 1497 1505 1502 1501 1501 1503 1506 1509 1512 1515 1518 1521 1524 1525 1527 1529 1530 1532 1534 1535 1537 1538 1540 1541 1542 1542 1543 1542 1542 1542 1541 1541
1479 1476 1475 1476 1477 1478 1486 1477 1478 1480 1488 1500 1501 1518 1508 1501 1501 1501 1504 1508 1511 1514 1518 1521 1524 1526 1527 1529 1530 1532 1533 1535 1536 1538 1539 1540 1541 1541 1542 1541 1541 1540 1539 1539
1479 1476 1476 1478 1476 1475 1477 1474 1479 1484 1495 1505 1503 1510 1510 1499 1503 1501 1503 1506 1510 1513 1517 1520 1522 1525 1527 1529 1530 1531 1533 1534 1535 1536 1537 1538 1539 1539 1539 1539 1538 1538 1537 1536
1475 1473 1472 1472 1471 1471 1472 1476 1484 1492 1504 1523 1505 1503 1510 1498 1497 1499 1501 1504 1508 1512 1515 1519 1522 1524 1527 1529 1530 1531 1532 1533 1534 1535 1536 1536 1536 1536 1536 1536 1536 1535 1535 1534
1480 1475 1472 1471 1474 1472 1475 1486 1504 1518 1528 1523 1493 1494 1498 1487 1488 1493 1497 1502 1506 1510 1514 1518 1520 1523 1526 1528 1530 1531 1531 1532 1533 1534 1534 1534 1534 1534 1534 1533 1533 1532 1532 1532
1486 1492 1477 1471 1472 1475 1474 1480 1500 1516 1517 1509 1493 1497 1489 1481 1486 1491 1496 1500 1504 1508 1512 1516 1519 1522 1524 1527 1528 1530 1530 1532 1532 1533 1533 1532 1532 1532 1532 1531 1530 1530 1529 1529
1481 1486 1471 1467 1465 1467 1474 1474 1470 1483 1490 1502 1497 1492 1488 1482 1486 1490 1494 1498 1502 1506 1510 1514 1517 1520 1523 1525 1527 1529 1529 1530 1531 1531 1531 1531 1530 1530 1529 1528 1528 1527 1526 1525
1468 1480 1471 1467 1464 1463 1465 1466 1471 1482 1499 1511 1506 1498 1498 1489 1487 1488 1492 1495 1500 1504 1508 1512 1516 1519 1522 1524 1526 1527 1528 1529 1529 1529 1529 1530 1528 1528 1527 1526 1525 1524 1523 1521
1463 1475 1474 1471 1473 1474 1469 1469 1471 1475 1480 1503 1521 1509 1480 1482 1482 1485 1489 1493 1497 1502 1506 1510 1514 1518 1521 1523 1525 1526 1527 1527 1528 1528 1527 1527 1526 1526 1525 1523 1522 1521 1520 1518
1463 1469 1478 1476 1470 1469 1469 1469 1472 1486 1489 1487 1498 1500 1474 1475 1478 1481 1485 1490 1494 1499 1503 1508 1512 1516 1519 1522 1523 1524 1525 1526 1526 1526 1525 1525 1524 1523 1522 1521 1519 1518 1516 1515
1464 1474 1486 1488 1491 1486 1481 1473 1469 1472 1478 1484 1496 1497 1473 1474 1475 1479 1483 1488 1493 1498 1502 1506 1510 1514 1517 1520 1521 1523 1523 1524 1524 1524 1523 1523 1521 1520 1519 1518 1516 1515 1513 1511
1466 1472 1483 1496 1499 1496 1492 1480 1470 1472 1480 1482 1484 1484 1476 1475 1476 1479 1482 1487 1492 1497 1501 1505 1509 1513 1516 1518 1519 1521 1521 1522 1522 1521 1521 1520 1519 1517 1516 1515 1513 1512 1510 1508
1465 1471 1472 1474 1476 1480 1478 1473 1467 1466 1467 1473 1473 1473 1470 1471 1474 1477 1481 1486 1490 1495 1500 1503 1507 1511 1513 1515 1517 1518 1518 1519 1518 1518 1518 1517 1516 1514 1513 1511 1510 1508 1507 1505
1466 1471 1471 1473 1470 1470 1469 1463 1459 1459 1458 1460 1463 1464 1461 1466 1471 1475 1480 1484 1488 1492 1496 1501 1504 1508 1510 1513 1514 1515 1515 1515 1515 1515 1515 1514 1513 1511 1510 1508 1507 1505 1503 1502
1467 1469 1474 1474 1466 1466 1469 1455 1453 1453 1451 1454 1462 1462 1461 1466 1470 1474 1478 1482 1486 1490 1493 1497 1501 1504 1507 1509 1511 1512 1512 1512 1512 1512 1512 1511 1510 1508 1507 1505 1504 1502 1500 1498
1467 1471 1471 1472 1474 1488 1465 1446 1445 1448 1449 1449 1452 1456 1460 1464 1469 1473 1477 1481 1484 1488 1491 1494 1498 1501 1504 1506 1507 1508 1509 1509 1509 1509 1509 1508 1507 1505 1504 1502 1500 1498 1496 1494
1459 1466 1469 1473 1478 1473 1458 1450 1449 1452 1453 1449 1451 1455 1459 1463 1468 1471 1474 1478 1482 1486 1488 1491 1495 1498 1500 1502 1504 1505 1506 1506 1506 1506 1506 1505 1503 1502 1500 1498 1496 1494 1492 1490
1457 1461 1467 1467 1476 1481 1463 1451 1450 1454 1461 1451 1453 1456 1460 1463 1468 1470 1472 1476 1480 1483 1486 1489 1492 1495 1497 1499 1500 1501 1502 1503 1503 1503 1502 1501 1499 1498 1496 1494 1492 1490 1488 1486
1465 1463 1465 1466 1467 1460 1454 1450 1452 1469 1469 1456 1456 1459 1461 1463 1467 1471 1472 1475 1478 1481 1484 1487 1490 1492 1494 1495 1497 1497 1498 1499 1499 1499 1498 1496 1495 1493 1492 1490 1488 1486 1484 1482
1460 1462 1462 1462 1470 1471 1456 1454 1462 1466 1461 1460 1459 1460 1461 1464 1466 1468 1471 1474 1477 1479 1482 1484 1487 1489 1490 1492 1493 1493 1494 1495 1495 1494 1493 1492 1491 1489 1488 1486 1484 1482 1480 1478
1449 1450 1452 1460 1468 1465 1463 1462 1463 1461 1461 1461 1460 1460 1461 1463 1464 1466 1469 1471 1474 1477 1479 1482 1483 1486 1487 1488 1489 1490 1490 1491 1490 1490 1489 1488 1486 1485 1483 1482 1480 1479 1477 1475
1447 1446 1450 1456 1458 1459 1461 1463 1463 1462 1462 1461 1461 1461 1461 1462 1463 1464 1467 1469 1472 1474 1476 1479 1481 1483 1484 1485 1485 1486 1486 1486 1486 1485 1484 1483 1482 1481 1479 1478 1476 1475 1473 1471
1448 1448 1451 1456 1458 1460 1462 1463 1463 1462 1462 1462 1461 1461 1462 1462 1463 1463 1465 1467 1469 1471 1474 1476 1478 1479 1480 1481 1482 1482 1482 1482 1481 1481 1480 1479 1478 1477 1475 1473 1472 1470 1468 1467
1446 1448 1452 1457 1460 1460 1462 1463 1463 1463 1463 1463 1462 1462 1462 1462 1462 1463 1464 1466 1468 1470 1472 1474 1475 1477 1478 1478 1478 1479 1479 1478 1477 1477 1476 1475 1474 1473 1471 1469 1467 1465 1464 1461